Powrót do katalogu

USA 460

AktywnyMilitariaVLEO
NORAD 62359·PAYLOAD·🇺🇸 United States

Wystrzelony Dec 17, 2024 z Vandenberg Space Force Base

Loading…

Następne Przeloty (najbliższe 24 godziny)

TLE

NieaktualneSource: Mike McCants

Epoka: Aug 20, 2026, 20:38 UTC

1 62359U 24243V   26232.85980635 0.00000000  00000-0  00000-0 0    02
2 62359  70.0216 134.6473 0004000  64.4936 295.5064 14.96713559    08

Śledź USA 460 w czasie rzeczywistym z AllMySat

Download on the App Store